| time (UTC) | temp F | wind direction | speed knots | gust knots | rain 1hr in | rain 24hr in | rain mn in | humidity % | barometer mb |
| 20260504043416 | 55 | 211 | 0.0 | 0.9 | 0.00 | 0.00 | 0.00 | 70 | 1016.5 |
| 20260504041912 | 55 | 211 | 0.0 | 0.0 | 0.00 | 0.00 | 0.00 | 69 | 1016.4 |
| 20260504040411 | 55 | 211 | 0.0 | 0.9 | 0.00 | 0.00 | 0.00 | 68 | 1016.4 |
| 20260504034907 | 56 | 211 | 0.0 | 0.0 | 0.00 | 0.00 | 0.00 | 67 | 1016.5 |
| 20260504033411 | 56 | 211 | 0.0 | 0.9 | 0.00 | 0.00 | 0.00 | 66 | 1016.6 |
| 20260504030403 | 57 | 211 | 0.0 | 0.9 | 0.00 | 0.00 | 0.00 | 66 | 1016.7 |
| 20260504024905 | 57 | 211 | 0.0 | 0.0 | 0.00 | 0.00 | 0.00 | 65 | 1016.6 |
| 20260504023401 | 58 | 211 | 0.0 | 0.9 | 0.00 | 0.00 | 0.00 | 64 | 1016.6 |
| 20260504021901 | 58 | 211 | 0.9 | 2.6 | 0.00 | 0.00 | 0.00 | 64 | 1016.9 |
| 20260504020358 | 58 | 240 | 0.0 | 1.7 | 0.00 | 0.00 | 0.00 | 64 | 1016.8 |
| 20260504014901 | 59 | 224 | 0.0 | 2.6 | 0.00 | 0.00 | 0.00 | 63 | 1016.9 |
| 20260504013402 | 59 | 209 | 0.9 | 3.5 | 0.00 | 0.00 | 0.00 | 61 | 1016.9 |
| 20260504004859 | 60 | 261 | 0.9 | 3.5 | 0.00 | 0.00 | 0.00 | 58 | 1016.6 |
| 20260504003357 | 60 | 271 | 1.7 | 8.7 | 0.00 | 0.00 | 0.00 | 54 | 1016.6 |
| 20260504001858 | 61 | 286 | 2.6 | 8.7 | 0.00 | 0.00 | 0.00 | 54 | 1016.6 |
| 20260504000357 | 61 | 251 | 2.6 | 8.7 | 0.00 | 0.00 | 0.00 | 56 | 1016.4 |
| 20260503234858 | 60 | 313 | 3.5 | 8.7 | 0.00 | 0.00 | 0.00 | 58 | 1015.9 |
| 20260503233402 | 61 | 222 | 1.7 | 5.2 | 0.00 | 0.00 | 0.00 | 63 | 1015.8 |
| 20260503231854 | 60 | 285 | 0.9 | 3.5 | 0.00 | 0.00 | 0.00 | 62 | 1015.7 |
| 20260503230358 | 60 | 236 | 0.9 | 4.3 | 0.00 | 0.00 | 0.00 | 63 | 1015.4 |
| 20260503224855 | 59 | 258 | 0.9 | 7.8 | 0.00 | 0.00 | 0.00 | 63 | 1015.3 |
| 20260503223351 | 59 | 283 | 0.0 | 0.0 | 0.00 | 0.00 | 0.00 | 61 | 1015.2 |
| 20260503221851 | 60 | 283 | 0.0 | 0.0 | 0.00 | 0.00 | 0.00 | 60 | 1014.8 |
| 20260503214853 | 61 | 283 | 0.0 | 0.0 | 0.00 | 0.00 | 0.00 | 58 | 1014.9 |
| 20260503213349 | 61 | 283 | 0.0 | 0.0 | 0.00 | 0.00 | 0.00 | 57 | 1014.8 |
| 20260503211851 | 61 | 283 | 0.0 | 2.6 | 0.00 | 0.00 | 0.00 | 57 | 1014.6 |
| 20260503210350 | 61 | 269 | 0.0 | 1.7 | 0.00 | 0.00 | 0.00 | 57 | 1014.5 |
| 20260503204853 | 62 | 269 | 0.0 | 0.0 | 0.00 | 0.00 | 0.00 | 56 | 1014.3 |
| 20260503203350 | 62 | 269 | 0.0 | 0.9 | 0.00 | 0.00 | 0.00 | 56 | 1014.0 |
| 20260503201851 | 63 | 269 | 0.0 | 0.9 | 0.00 | 0.00 | 0.00 | 57 | 1014.0 |
| 20260503200349 | 64 | 269 | 0.0 | 0.0 | 0.00 | 0.00 | 0.00 | 54 | 1013.9 |
| 20260503194850 | 65 | 269 | 0.0 | 0.0 | 0.00 | 0.00 | 0.00 | 51 | 1013.9 |
| 20260503193351 | 67 | 269 | 0.0 | 0.0 | 0.00 | 0.00 | 0.00 | 48 | 1013.8 |
| 20260503190345 | 69 | 269 | 0.0 | 0.9 | 0.00 | 0.00 | 0.00 | 43 | 1013.5 |
| 20260503184850 | 70 | 269 | 0.0 | 2.6 | 0.00 | 0.00 | 0.00 | 41 | 1013.5 |
| 20260503183347 | 71 | 269 | 0.9 | 7.0 | 0.00 | 0.00 | 0.00 | 40 | 1013.5 |
| 20260503181846 | 72 | 229 | 0.9 | 6.1 | 0.00 | 0.00 | 0.00 | 39 | 1013.4 |
| 20260503180347 | 73 | 242 | 0.9 | 2.6 | 0.00 | 0.00 | 0.00 | 39 | 1013.1 |
| 20260503174847 | 74 | 233 | 1.7 | 5.2 | 0.00 | 0.00 | 0.00 | 37 | 1013.1 |
| 20260503173352 | 74 | 268 | 0.9 | 3.5 | 0.00 | 0.00 | 0.00 | 33 | 1013.0 |
| 20260503170347 | 76 | 260 | 1.7 | 4.3 | 0.00 | 0.00 | 0.00 | 34 | 1012.7 |
| 20260503150341 | 79 | 78 | 0.0 | 2.6 | 0.00 | 0.00 | 0.00 | 33 | 1012.8 |
| 20260503130343 | 83 | 291 | 1.7 | 4.3 | 0.00 | 0.00 | 0.00 | 31 | 1013.8 |
| 20260503090335 | 76 | 293 | 0.9 | 3.5 | 0.00 | 0.00 | 0.00 | 40 | 1016.6 |
| 20260503080335 | 72 | 271 | 1.7 | 5.2 | 0.00 | 0.00 | 0.00 | 45 | 1017.0 |
| 20260503071540 | 66 | 232 | 0.9 | 2.6 | 0.00 | 0.00 | 0.00 | 52 | 1017.1 |
| 20260503060329 | 54 | 218 | 0.0 | 1.7 | 0.00 | 0.00 | 0.00 | 73 | 1016.9 |
| 20260503054829 | 51 | 236 | 0.0 | 0.9 | 0.00 | 0.00 | 0.00 | 78 | 1017.0 |
| 20260503053330 | 48 | 236 | 0.0 | 1.7 | 0.00 | 0.00 | 0.00 | 83 | 1017.0 |
| 20260503051830 | 45 | 236 | 0.0 | 0.0 | 0.00 | 0.00 | 0.00 | 84 | 1017.0 |
| 20260503050330 | 44 | 236 | 0.0 | 0.0 | 0.00 | 0.00 | 0.00 | 83 | 1017.2 |
| 20260503044829 | 44 | 236 | 0.0 | 0.0 | 0.00 | 0.00 | 0.00 | 81 | 1017.2 |